EW3263 Weather Reports


Display with metric or nautical units.
time (UTC)temp
F
wind
direction
speed
MPH
gust
MPH
rain 1hr
in
rain 24hr
in
rain mn
in
humidity
%
barometer
mb
20260505183031 52 0.0 0.0 0.00 0.34 0.34 84 1022.5
20260505181527 52 0.0 0.0 0.01 0.34 0.34 85 1022.4
20260505180022 52 0.0 0.0 0.01 0.34 0.34 87 1022.2
20260505174518 53 0.0 0.0 0.01 0.34 0.34 89 1022.0
20260505173034 53 0.0 0.0 0.01 0.34 0.34 91 1021.8
20260505171509 53 0.0 0.0 0.00 0.33 0.33 91 1021.7
20260505170004 53 0.0 0.0 0.00 0.33 0.33 91 1021.6
20260505164605 52 0.0 0.0 0.00 0.45 0.33 92 1021.4
20260505163101 51 0.0 0.0 0.00 0.45 0.33 93 1021.4
20260505161552 51 0.0 0.0 0.03 0.45 0.33 91 1021.3
20260505153050 50 0.0 0.0 0.07 0.45 0.33 92 1021.2
20260505151542 51 0.0 0.0 0.03 0.41 0.28 92 1021.0
20260505124550 51 0.0 0.0 0.05 0.34 0.22 94 1019.5
20260505123046 51 0.0 0.0 0.05 0.34 0.22 94 1019.6
20260505121544 51 0.0 0.0 0.03 0.31 0.19 93 1019.5
20260505120038 51 0.0 0.0 0.01 0.28 0.17 93 1019.4
20260505114538 51 0.0 0.0 0.03 0.28 0.17 93 1019.4
20260505113028 51 0.0 0.0 0.03 0.28 0.17 93 1019.4
20260505111530 51 0.0 0.0 0.02 0.28 0.16 93 1019.5
20260505101508 50 0.0 0.0 0.07 0.26 0.14 93 1019.6
20260505100002 50 0.0 0.0 0.07 0.24 0.12 92 1019.6
20260505094606 50 0.0 0.0 0.07 0.23 0.11 91 1019.8
20260505093054 50 0.0 0.0 0.07 0.21 0.09 91 1019.9
20260505091557 50 0.0 0.0 0.06 0.19 0.07 91 1020.1
20260505090055 50 0.0 0.0 0.05 0.17 0.05 90 1020.0
20260505084541 51 0.0 0.0 0.04 0.16 0.04 88 1020.1
20260505083043 51 0.0 0.0 0.02 0.14 0.02 88 1020.3
20260505081550 52 0.0 0.0 0.01 0.13 0.01 86 1020.5
20260505080038 52 0.0 0.0 0.00 0.12 0.00 86 1020.5
20260505074523 53 0.0 0.0 0.00 0.12 0.00 86 1020.6
20260505073018 53 0.0 0.0 0.00 0.12 0.00 87 1020.7
20260505071524 53 0.0 0.0 0.00 0.12 0.00 87 1020.8
20260505070010 53 0.0 0.0 0.00 0.12 0.00 87 1021.0
20260505064505 53 0.0 0.0 0.00 0.12 0.00 87 1021.0
20260505063002 53 0.0 0.0 0.00 0.12 0.00 87 1021.1
20260505061624 53 0.0 0.0 0.00 0.12 0.00 88 1021.3
20260505060054 53 0.0 0.0 0.00 0.12 0.00 88 1021.4
20260505054602 53 0.0 0.0 0.00 0.12 0.00 88 1021.4
20260505053045 53 0.0 0.0 0.00 0.12 0.00 86 1021.6
20260505051540 54 0.0 0.0 0.00 0.12 0.00 83 1021.9
20260505041523 55 0.0 0.0 0.00 0.12 0.00 77 1021.8
20260505040018 55 0.0 0.0 0.00 0.12 0.00 77 1021.7
20260505034516 55 0.0 0.0 0.00 0.12 0.00 76 1021.6
20260505033018 55 0.0 0.0 0.00 0.12 0.00 76 1021.5
20260505031505 56 0.0 0.0 0.00 0.12 0.00 75 1021.4
20260505024609 56 0.0 0.0 0.00 0.12 0.00 71 1021.0
20260505023052 57 0.0 0.0 0.00 0.12 0.00 70 1021.0
20260505021603 57 0.0 0.0 0.00 0.12 0.00 68 1020.9
20260505020047 58 0.0 0.0 0.00 0.12 0.00 67 1021.0
20260505014540 58 0.0 0.0 0.00 0.12 0.00 67 1020.8
20260505013034 59 0.0 0.0 0.00 0.12 0.00 66 1021.1
20260505011542 60 0.0 0.0 0.00 0.12 0.00 64 1021.1
20260505010026 60 0.0 0.0 0.00 0.12 0.00 61 1021.1
20260505004535 61 0.0 0.0 0.00 0.12 0.00 61 1021.1
20260505003017 61 0.0 0.0 0.00 0.12 0.00 61 1021.0
20260505001513 61 0.0 0.0 0.00 0.12 0.00 60 1021.1
20260504233039 62 0.0 0.0 0.00 0.12 0.12 54 1021.1
20260504231527 63 0.0 0.0 0.00 0.12 0.12 55 1021.0
20260504230026 63 0.0 0.0 0.00 0.12 0.12 56 1021.1
20260504224522 63 0.0 0.0 0.00 0.12 0.12 53 1021.0
20260504223015 63 0.0 0.0 0.00 0.12 0.12 53 1021.1
20260504221510 62 0.0 0.0 0.00 0.12 0.12 53 1021.4
20260504220006 63 0.0 0.0 0.00 0.12 0.12 53 1021.3
20260504214502 63 0.0 0.0 0.00 0.12 0.12 54 1021.5
20260504213122 62 0.0 0.0 0.00 0.12 0.12 54 1021.6
20260504211554 62 0.0 0.0 0.00 0.12 0.12 55 1021.6
20260504210056 63 0.0 0.0 0.00 0.12 0.12 54 1021.6
20260504204559 62 0.0 0.0 0.00 0.12 0.12 57 1021.7
20260504203041 62 0.0 0.0 0.00 0.12 0.12 55 1021.7
20260504201535 62 0.0 0.0 0.00 0.12 0.12 55 1021.7
20260504200031 62 0.0 0.0 0.00 0.12 0.12 55 1021.8
20260504194531 61 0.0 0.0 0.00 0.12 0.12 58 1022.0
20260504193022 61 0.0 0.0 0.00 0.12 0.12 58 1022.2
20260504191517 60 0.0 0.0 0.00 0.12 0.12 61 1021.9
20260504190017 60 0.0 0.0 0.00 0.12 0.12 63 1022.3
20260504184513 59 0.0 0.0 0.00 0.12 0.12 66 1022.5